TimeCST,TemperatureF,Dew PointF,Humidity,Sea Level PressureIn,VisibilityMPH,Wind Direction,Wind SpeedMPH,Gust SpeedMPH,PrecipitationIn,Events,Conditions,WindDirDegrees,DateUTC
6:00 AM,78,74,86,29.91,6,Calm,Calm,,,,Smoke,,2013-03-26 12:00:00
6:00 AM,78.8,75.2,89,29.92,6.2,Calm,Calm,-,N/A,,Mostly Cloudy,0,2013-03-26 12:00:00
7:00 AM,80.6,75.2,84,29.95,5.0,Calm,Calm,-,N/A,,Mostly Cloudy,0,2013-03-26 13:00:00
8:00 AM,82.4,75.2,79,29.98,5.0,NNW,6.9,-,N/A,,Mostly Cloudy,330,2013-03-26 14:00:00
9:00 AM,80,75,79,30.01,5,NNW,11.5,,,,Overcast,340,2013-03-26 15:00:00
9:00 AM,80.6,75.2,84,30.01,5.0,NNW,11.5,-,N/A,,Overcast,340,2013-03-26 15:00:00
10:00 AM,80.6,75.2,84,30.01,5.0,North,18.4,-,N/A,,Overcast,360,2013-03-26 16:00:00
11:00 AM,82.4,73.4,74,29.98,6.2,North,13.8,-,N/A,,Mostly Cloudy,360,2013-03-26 17:00:00
12:00 PM,80,74,76,29.98,6,North,8.1,,,,Smoke,10,2013-03-26 18:00:00
12:00 PM,80.6,73.4,79,29.98,6.2,North,8.1,-,N/A,,Mostly Cloudy,10,2013-03-26 18:00:00
1:00 PM,82.4,73.4,74,29.98,6.2,North,15.0,-,N/A,,Mostly Cloudy,360,2013-03-26 19:00:00
2:00 PM,82.4,75.2,79,29.95,6.2,North,17.3,-,N/A,,Mostly Cloudy,10,2013-03-26 20:00:00
3:00 PM,82,74,72,29.95,7,North,17.3,,,,Haze,0,2013-03-26 21:00:00
3:00 PM,82.4,75.2,79,29.95,6.2,North,17.3,-,N/A,,Mostly Cloudy,360,2013-03-26 21:00:00
4:00 PM,82.4,73.4,74,29.95,6.2,North,18.4,-,N/A,,Mostly Cloudy,10,2013-03-26 22:00:00
5:00 PM,78.8,73.4,83,29.98,5.0,North,21.9,-,N/A,,Overcast,360,2013-03-26 23:00:00
6:00 PM,78,72,78,29.99,5,North,25.3,,,,Mostly Cloudy,0,2013-03-27 00:00:00
6:00 PM,78.8,73.4,83,29.98,5.0,North,11.5,25.3,N/A,,Mostly Cloudy,360,2013-03-27 00:00:00
7:00 PM,77.0,71.6,83,30.01,5.0,NNE,12.7,28.8,N/A,,Overcast,20,2013-03-27 01:00:00
8:00 PM,77.0,71.6,83,30.04,5.0,NNE,19.6,31.1,N/A,,Overcast,30,2013-03-27 02:00:00